Regional Weather Roundup
Issued by NWS Goodland, KS

Home | Current Version | Previous Version | Graphics & Text | Print | Product List | Glossary On
Versions: 1 2 3 4 5 6 7 8 9 10 11 12 13 14 15 16 17 18 19 20 21 22 23 24 25 26 27 28 29 30 31 32 33 34 35 36 37 38 39 40 41 42 43 44 45 46 47 48 49 50
000
ASUS43 KGLD 231808
RWRGLD

GOODLAND FORECAST AREA HOURLY WEATHER ROUNDUP
NATIONAL WEATHER SERVICE GOODLAND KS
1200 PM MDT WED JUL 23 2014

...OFFICIAL OBSERVATIONS...

CITY           SKY/WX    TMP DP  RH WIND       PRES   REMARKS
GOODLAND KS    MOSUNNY   79  61  53 E26G36    30.35F
HILL CITY KS   CLOUDY    74  62  66 NE7       30.31F
IMPERIAL NEB   MOSUNNY   80  62  54 SW7       30.27F
MCCOOK NEB     CLOUDY    69  63  81 SE22      30.20F
AKRON CO       CLOUDY    68  63  84 SE25G32   30.35S
BURLINGTON CO  CLOUDY    69  63  81 E17G28    30.36F
LIMON CO       SUNNY     89  55  31 SE17G26   30.36F
$$

...UNOFFICIAL OBSERVATIONS...

CITY           SKY/WX    TMP DP  RH WIND       PRES   REMARKS
COLBY KS       SUNNY     75  64  69 E17       30.33F
GOVE KS          N/A     76  32  20 MISG        N/A
LENORA KS        N/A     68  32  26 MISG        N/A
NORTON KS      LGT RAIN  68  64  88 E3        30.26F
OBERLIN KS     PTSUNNY   68  64  88 NE6       30.28F
SHARON SPRINGS   N/A     74  68  80 E22G35      N/A
ST FRANCIS KS  SUNNY     81  57  44 SE23      30.30F
TRIBUNE KS     SUNNY     90 N/A N/A E18       30.31R
KIT CARSON CO    N/A     87  67  50 N23G35      N/A
YUMA CO          N/A     74  65  73 SE21G31     N/A
$$


USA.gov is the U.S. government's official web portal to all federal, state and local government web resources and services.